Location: Jackson Park
(37.2862°N, 79.9123°W)
Time: 12:07:44
(UTC+00:00)

Vanguard 3 - Pass Details

Date: 13 May 2026
Orbit: 507 x 3204 km, 33.3° (Epoch: 11 June)

Event Time Altitude Azimuth Distance (km) Brightness Sun altitude
Rises 01:03:14 0° 282° (WNW) 6,759 13.5 -8.6°
Reaches altitude 10° 01:08:29 10° 278° (W) 5,423 12.5 -9.5°
Maximum altitude 01:22:05 44° 214° (SSW) 2,429 9.5 -11.8°
Enters shadow 01:29:33 13° 148° (SSE) 3,130 9.6 -13.0°
Drops below altitude 10° 01:30:15 10° 145° (SE) 3,303 - -13.1°
Sets 01:32:41 0° 138° (SE) 3,980 - -13.5°
